Printer-friendly version

IAU Minor Planet Center

Minor Planet Center

(67) Asia

Orbital Elements

The following orbital elements are taken from MPC 26379:
   (67) Asia
Epoch 2005 Jan. 30.0 TT = JDT 2453400.5                 Goffin
M 359.07539              (2000.0)            P               Q
n   0.26158452     Peri.  106.32242     +0.62795886     +0.77718853
a   2.4213711      Node   202.72832     -0.74809877     +0.58844458
e   0.1845346      Incl.    6.02696     -0.21451318     +0.22295954
P   3.77           H    8.28          G   0.15           U   0
From 412 observations at 63 oppositions, 1861-1994, mean residual 1".00.
An explanation of the orbital elements is available.

These orbital elements are also available in forms suitable for loading into a number of popular planetarium-type software programs.


Ephemeris

The following ephemeris is at intervals of five days. A daily ephemeris covering the same time interval is also available.

Personalized ephemerides for this object (and others) can be generated using the MPES.

Date    TT    R. A. (2000) Decl.     Delta      r     Elong.  Phase     V
 
2005 09 28    03 10.12   +16 13.1    1.461    2.285   135.3    18.0    11.8
2005 10 03    03 08.34   +15 48.8    1.431    2.295   140.7    16.0    11.7
2005 10 08    03 05.79   +15 20.9    1.406    2.305   146.4    13.9    11.6
2005 10 13    03 02.54   +14 49.9    1.386    2.316   152.2    11.6    11.5
2005 10 18    02 58.70   +14 16.3    1.372    2.326   158.1     9.2    11.4
2005 10 23    02 54.38   +13 40.8    1.364    2.337   164.1     6.7    11.3
2005 10 28    02 49.73   +13 04.1    1.362    2.347   170.2     4.2    11.2
2005 11 02    02 44.90   +12 27.2    1.367    2.357   175.5     1.9    11.1
2005 11 07    02 40.07   +11 51.1    1.379    2.368   175.2     2.0    11.1
2005 11 12    02 35.41   +11 16.9    1.398    2.378   169.7     4.3    11.3
2005 11 17    02 31.08   +10 45.4    1.423    2.388   163.8     6.6    11.4
2005 11 22    02 27.20   +10 17.5    1.455    2.399   157.8     9.0    11.6
2005 11 27    02 23.87   +09 53.5    1.493    2.409   151.9    11.1    11.8

Back to Bright Minor Planets

Astronomical Headlines Index

MPC


Valid HTML 4.01!